Helicity
8 61 91 51 31 13 53 27 48 75 15 33 37 35 19 -20 -31 111 169 68 105 62 11 140 280 190 114 105 119 143 125 115 37 110 123 88 81 99 90 77 52 48 43 37
86 46 45 18 28 1 4 65 105 49 1 57 6 -17 -15 -36 14 211 134 88 138 103 73 210 188 -158 170 234 171 151 114 140 127 109 59 77 88 73 69 67 59 43 39 44
202 64 4 27 -14 -3 56 86 69 57 51 82 -71 -57 -26 -69 -119 224 60 96 170 137 97 97 38 -170 -20 112 125 109 112 115 138 214 89 75 69 95 107 78 78 45 48 60
92 74 25 12 13 51 11 42 75 -3 -6 32 8 17 70 77 46 108 124 106 126 125 154 95 -7 -58 -42 -115 30 32 -31 44 -21 45 97 70 103 125 121 116 106 90 48 45
50 40 63 79 99 96 51 62 64 -6 13 49 155 60 141 171 78 110 268 116 114 96 38 29 50 66 40 -29 -31 -27 -11 -56 -66 28 -10 13 -9 3 49 116 103 30 29 69
39 29 56 60 46 137 28 38 59 73 91 105 220 2 234 221 149 166 304 174 99 66 57 46 55 34 22 70 83 55 5 -10 36 66 81 -5 22 2 3 34 76 144 97 107
95 69 85 47 74 58 55 86 116 132 107 91 49 -6 90 215 112 157 355 375 169 85 28 48 82 74 63 64 62 53 60 42 55 50 18 49 54 14 82 75 92 194 232 220
27 38 48 68 23 22 12 96 140 94 36 -18 7 56 166 138 128 58 321 245 117 100 80 116 113 104 102 93 89 70 67 65 62 64 67 65 64 97 77 90 108 131 146 202
75 18 112 78 98 54 44 73 77 56 72 8 47 5 71 42 87 119 106 47 113 117 119 139 119 106 89 82 91 84 85 79 79 88 97 88 101 93 94 94 103 120 141 183
42 111 48 84 101 54 57 73 76 63 21 57 15 22 41 51 70 56 101 154 165 139 135 127 118 121 113 102 106 115 109 108 112 117 132 146 144 137 122 117 129 134 144 172
74 54 71 56 73 134 106 110 70 39 46 -11 -27 -32 24 25 27 37 53 72 92 112 114 115 110 103 102 89 86 90 95 97 110 110 117 131 138 147 142 130 126 135 151 180
58 51 50 69 98 132 112 124 120 67 49 44 -11 -33 24 22 43 77 76 78 102 133 154 147 140 121 113 120 101 87 82 85 94 100 101 114 132 137 137 139 143 151 168 191
58 40 65 37 26 26 70 91 100 67 19 25 -36 -80 48 75 88 117 103 89 98 112 112 115 127 138 139 123 118 114 93 89 83 76 81 91 104 117 123 130 140 157 191 201
48 41 41 64 46 38 50 61 79 59 20 32 60 54 57 84 85 90 95 95 102 101 93 83 77 62 67 76 80 74 79 75 71 66 72 77 85 94 106 118 133 146 157 172
33 22 39 39 75 62 45 45 49 28 52 49 55 68 80 96 99 98 87 105 131 155 160 150 133 130 114 101 96 100 99 79 71 77 75 72 76 85 106 120 134 152 170 190
30 28 40 30 20 28 25 59 44 27 9 19 16 50 54 47 61 71 81 93 115 138 156 162 160 152 140 137 132 121 117 122 112 100 94 97 102 99 102 118 142 165 195 220
30 35 35 47 13 21 36 4 3 -4 -11 3 -18 -31 -38 -63 -77 -102 -69 68 95 102 115 125 124 105 107 123 124 115 102 88 83 75 92 103 101 107 113 126 152 180 196 208
36 37 45 66 68 75 45 13 12 5 -9 -14 -13 -24 -35 -35 -31 -32 42 73 69 57 61 60 67 75 93 95 90 90 93 99 95 87 81 84 94 104 118 137 150 173 204 211
5 29 26 30 19 23 18 15 4 -0 -11 15 22 11 -4 -14 -4 28 86 72 18 10 32 39 62 74 79 90 118 136 127 98 92 92 84 83 90 110 126 140 162 197 209 217
3 -8 12 5 23 38 -10 3 13 -4 -21 13 8 -0 3 -1 -79 5 72 40 40 48 55 53 23 28 21 54 70 78 95 129 136 102 107 97 83 97 136 154 160 188 197 217
2 -4 14 6 15 -8 -1 17 31 -26 -5 13 17 19 6 -31 12 41 45 32 23 20 23 47 50 28 3 18 23 47 74 71 94 92 101 107 104 109 118 167 205 220 240 225
9 22 22 16 30 28 47 33 -20 19 65 59 56 45 20 27 19 17 6 -11 -13 -15 3 18 43 25 29 49 71 77 78 108 103 72 57 80 89 109 147 199 266 241 251 239
26 23 18 30 26 16 31 10 73 79 54 43 29 25 18 4 -29 -24 -54 -50 -38 -12 10 32 56 61 73 54 86 93 74 74 85 71 49 47 67 88 133 215 277 295 267 255
19 36 37 35 44 49 60 81 96 88 83 72 40 15 -1 -24 -35 -27 -6 22 25 30 26 46 72 69 71 72 73 83 58 69 71 28 61 30 47 87 134 205 252 296 310 275
42 79 75 58 38 71 74 94 117 111 96 68 48 30 7 16 24 55 47 35 43 48 61 77 68 67 56 66 80 95 84 92 73 4 43 9 62 108 144 184 234 243 231 262
163 141 160 94 78 109 82 122 162 123 85 77 67 60 55 55 48 48 39 54 59 66 73 69 52 71 65 61 78 89 90 83 53 -8 -15 38 87 138 154 207 239 220 221 232
Wind_Speed
11 8 3 9 33 40 35 52 56 66 63 72 73 70 72 68 69 63 69 68 71 77 85 49 40 47 24 32 34 47 52 55 46 43 30 32 37 37 43 42 40 42 45 44
12 13 9 26 51 55 42 59 64 55 53 59 63 65 61 62 67 64 70 66 69 73 63 49 49 39 61 40 38 42 53 60 53 41 33 44 42 43 48 46 44 48 47 44
11 18 21 39 48 49 49 61 61 54 45 42 55 54 51 47 56 64 60 62 65 64 54 40 53 46 45 54 57 58 54 64 70 54 51 49 50 49 47 45 48 46 47 51
21 28 42 44 49 53 59 67 61 63 47 48 53 48 34 46 53 58 57 59 54 52 46 41 52 48 42 40 50 84 60 67 74 65 63 73 73 64 66 62 52 47 49 52
45 47 51 46 50 65 47 66 68 67 41 40 34 32 35 44 50 51 49 51 46 38 37 34 31 37 30 12 33 78 76 59 68 79 82 79 81 78 66 71 62 64 57 54
45 44 43 40 54 64 48 54 49 38 39 40 33 19 28 33 34 44 44 37 36 32 31 25 17 18 24 37 10 44 71 75 79 39 50 79 73 82 80 65 63 44 52 47
42 41 44 42 48 49 44 51 46 44 44 31 27 21 22 23 25 43 42 42 38 30 30 18 15 18 19 18 22 20 17 35 25 22 18 25 28 34 26 24 62 38 42 43
38 32 23 40 35 37 34 31 41 48 34 21 17 15 15 14 14 15 36 36 31 27 28 24 25 27 27 28 28 26 25 24 20 19 23 27 29 29 21 20 17 19 18 18
33 20 26 26 26 26 29 28 31 29 19 14 18 21 10 6 6 8 15 15 17 24 30 32 32 35 36 40 41 40 36 40 41 37 34 32 33 31 32 30 28 29 26 20
31 24 16 24 26 16 20 32 34 31 30 17 19 10 8 12 7 7 8 12 15 18 23 28 32 36 37 37 39 41 44 49 45 40 41 41 40 39 39 37 34 31 30 24
30 25 13 24 15 20 21 30 28 28 24 23 16 13 16 16 11 13 17 18 19 18 21 24 28 33 36 38 39 39 38 40 41 41 40 39 38 37 35 38 38 35 30 27
32 38 28 20 16 22 11 12 26 27 22 17 10 14 18 16 16 21 20 22 25 28 32 34 35 37 38 41 40 38 35 33 35 36 39 40 41 40 37 36 35 30 28 26
34 44 44 23 15 13 11 13 13 15 14 18 24 20 20 19 25 33 33 34 34 37 39 39 42 43 44 44 43 42 41 39 36 36 36 37 38 39 39 36 34 30 27 26
37 40 40 37 19 15 17 17 20 19 18 16 13 9 23 29 32 36 38 40 43 44 43 42 44 44 45 47 48 47 47 46 45 43 43 41 40 40 38 37 35 32 29 28
39 49 47 41 26 15 13 16 20 18 19 18 17 19 31 37 40 44 46 47 48 50 51 54 54 52 52 54 53 52 51 50 48 49 48 47 45 44 41 39 36 32 30 27
37 49 46 46 37 36 33 27 21 21 23 23 23 23 34 35 37 40 42 47 52 55 57 59 63 66 65 60 60 62 62 60 58 59 57 55 54 51 47 41 36 33 31 28
40 45 44 47 37 41 45 36 34 37 34 33 35 31 24 23 23 20 15 46 52 54 61 65 68 67 68 69 72 73 70 67 67 68 67 64 60 57 53 50 45 42 38 35
40 40 37 42 39 45 39 31 36 40 35 34 34 28 23 19 13 10 30 53 64 70 73 75 76 78 78 77 76 77 78 79 77 73 71 68 66 65 59 54 50 47 43 41
33 35 36 37 38 35 34 36 36 32 29 28 26 22 19 18 17 15 20 62 77 82 84 88 89 90 90 88 85 82 79 77 77 77 78 74 69 66 62 60 54 51 48 47
31 33 31 32 31 32 32 34 30 25 19 26 22 18 18 24 13 17 47 69 78 80 77 81 92 94 96 95 94 94 93 87 83 74 74 73 71 66 62 60 56 52 50 49
29 28 28 29 26 24 28 28 26 20 19 20 17 17 21 20 24 42 59 69 75 78 81 81 86 93 99 96 99 106 103 98 85 77 73 70 67 70 65 58 55 52 50 47
27 27 26 26 23 19 26 25 20 20 21 18 19 22 25 31 37 47 52 55 60 65 70 65 77 96 99 99 98 100 101 98 92 84 75 72 70 64 63 58 55 53 49 48
23 24 22 22 21 24 22 18 19 19 18 19 23 29 35 38 42 48 50 56 59 62 62 62 70 92 94 91 83 84 84 90 89 86 82 76 71 62 56 54 52 51 48 47
18 18 17 19 17 14 14 16 16 17 21 24 27 32 36 40 44 47 55 61 65 65 60 68 82 95 82 83 86 81 94 90 82 82 82 77 69 59 51 49 46 50 48 48
18 20 15 10 9 14 8 7 10 15 20 25 30 33 37 42 47 55 61 62 61 55 57 72 87 88 84 94 82 78 57 86 75 84 81 73 64 52 49 48 46 47 51 45
8 9 10 15 14 15 19 9 11 15 20 27 33 37 39 44 51 55 56 56 54 54 61 70 87 84 78 90 90 60 23 73 72 78 75 70 60 45 44 45 46 47 48 45
Wind_Direction
118 89 40 127 176 231 268 231 221 214 215 217 225 234 232 234 235 250 244 250 241 231 222 233 240 243 218 217 220 214 228 236 235 236 241 248 246 250 248 252 256 260 261 264
101 171 172 187 196 194 233 204 199 201 207 217 221 227 235 239 237 245 239 244 238 229 233 235 236 267 241 226 227 228 236 239 240 250 252 255 254 257 256 256 260 263 266 272
111 131 212 175 179 190 205 190 190 188 198 218 208 216 234 241 248 250 247 246 239 233 237 247 241 247 234 233 232 235 244 244 245 253 254 255 261 261 257 260 261 268 271 272
109 152 176 172 176 177 176 179 178 182 195 200 206 218 243 255 258 246 241 238 240 236 246 253 245 237 244 230 235 218 244 232 225 236 251 249 252 263 260 258 265 273 277 277
108 123 151 164 166 163 170 168 168 170 193 195 203 210 250 270 259 229 235 233 235 238 240 249 259 259 265 236 246 217 213 236 233 240 238 247 243 244 263 261 265 269 277 283
123 130 149 165 163 155 161 169 178 194 185 183 212 274 284 269 246 222 223 220 232 238 248 262 283 288 283 267 197 177 207 242 225 192 194 227 213 233 232 260 260 278 275 286
133 137 145 160 164 166 179 169 172 171 182 189 220 267 291 255 234 224 228 233 236 240 252 277 305 306 311 309 292 292 290 276 273 265 239 217 221 216 275 263 270 275 282 286
145 163 180 163 183 179 185 196 181 173 183 211 255 246 245 260 272 252 243 252 251 253 272 288 303 308 313 308 303 299 296 294 288 281 283 283 282 287 283 283 277 282 281 287
153 180 170 174 189 201 195 184 190 176 190 198 199 189 188 273 321 269 239 253 269 278 285 289 297 305 307 297 292 289 289 285 283 284 285 286 286 285 286 289 289 288 290 291
157 174 210 206 197 228 206 182 183 188 189 193 191 192 230 222 273 294 319 316 320 324 307 301 304 308 314 313 305 297 288 283 284 285 284 284 286 286 286 286 284 284 285 280
159 172 210 206 207 199 202 190 192 200 213 205 208 234 250 235 270 335 344 341 346 340 326 322 325 327 325 320 317 307 299 291 287 287 287 286 286 287 287 285 282 280 280 276
142 151 166 192 224 201 239 229 207 216 219 232 224 250 277 298 318 336 334 341 349 343 324 322 324 324 325 327 325 320 315 305 296 292 290 287 286 287 288 287 284 281 277 272
153 136 147 195 236 278 279 283 274 247 267 253 257 260 327 322 323 328 330 346 344 339 337 335 331 329 322 322 323 321 316 308 305 302 297 294 290 286 285 286 284 280 274 270
141 133 142 160 215 274 263 298 302 292 287 301 322 24 319 319 319 322 336 339 335 334 337 338 333 335 329 324 319 317 316 313 309 303 298 295 291 288 286 284 282 277 272 268
136 127 132 140 172 232 286 295 314 331 316 17 24 345 329 321 316 319 330 331 329 332 330 327 325 326 325 320 318 316 313 310 306 299 295 292 290 288 286 283 280 277 272 267
140 130 135 131 145 155 168 199 264 307 339 351 348 14 3 352 345 338 336 329 326 325 325 324 321 319 319 319 317 312 307 304 301 296 292 289 286 283 281 279 274 272 267 262
133 132 131 127 136 138 133 143 151 152 156 162 149 159 184 197 209 185 99 317 328 333 326 324 321 319 318 316 311 306 303 301 297 292 289 286 283 280 278 276 272 267 265 265
132 134 136 131 135 125 139 150 144 132 137 129 112 113 108 104 161 120 356 317 311 310 316 315 314 312 312 311 309 305 302 298 295 293 290 286 281 277 274 271 269 266 263 260
136 138 136 133 130 135 142 138 134 138 132 110 102 100 86 60 41 33 8 325 311 307 311 307 308 308 307 306 306 305 301 298 294 291 289 286 281 275 271 267 265 264 262 261
137 132 145 141 136 129 137 131 124 123 135 110 100 86 50 23 0 352 342 330 322 319 321 319 310 307 305 305 303 300 297 295 292 291 288 286 282 276 269 265 263 263 263 262
143 145 144 142 144 150 128 120 96 114 103 85 66 33 11 357 345 338 334 328 325 323 322 322 318 313 308 307 304 296 294 292 293 291 288 286 281 275 269 264 260 260 260 261
142 133 132 129 132 128 103 92 119 83 60 42 24 8 354 346 341 339 337 336 335 333 331 329 325 316 314 312 308 302 296 293 291 286 284 283 280 276 269 262 256 256 257 256
133 123 117 124 110 83 106 86 62 51 35 22 9 1 353 348 345 342 339 338 338 336 335 333 328 322 321 319 318 313 304 299 291 283 277 276 276 274 266 257 252 250 250 250
102 97 102 80 86 108 99 74 60 45 26 17 7 359 355 349 347 343 342 341 340 341 339 337 333 326 329 327 322 316 302 293 293 283 271 269 271 271 262 254 248 245 244 244
63 70 76 87 80 62 119 110 58 36 24 12 4 0 356 351 347 345 343 343 343 342 342 340 335 333 333 326 330 323 314 286 288 274 261 265 269 269 260 253 244 242 244 238
87 78 72 44 56 45 32 94 55 30 13 6 1 359 357 353 349 347 345 345 345 344 345 344 338 338 338 332 337 336 313 287 285 258 254 262 268 270 260 251 248 250 247 244